C/2021 C5 ( PanSTARRS )

Japanese version
Home page
Updated on June 1, 2021

---------------------------------------------------------------------

* Profile

Discovery Date February 12, 2021
Magnitude 21.0 mag
Discoverer Pan-STARRS 1 telescope (Haleakala)

* Pictures

* Orbital Elements

Epoch 2023 Feb. 25.0 TT = JDT 2460000.5
T 2023 Feb. 11.05547 TT                                 Rudenko
q   3.2418441            (2000.0)            P               Q
z  +0.0004169      Peri.  270.92297     -0.36146770     +0.81168181
 +/-0.0000133      Node   323.68313     -0.16802990     -0.54074272
e   0.9986485      Incl.   50.77804     -0.91711889     -0.22083922
From 67 observations 2020 Dec. 22-2021 Apr. 14, mean residual 0".4.

* Finding Charts

* Magnitudes Graph

        m1 = 8.5 + 5 log d + 10.0 log r

---------------------------------------------------------------------

The orbital elements are published on M.P.E.C. 2021-L04.
The charts are made with StellaNavigator Ver.10 (AstroArts).
The magnitudes graphs are made with Comet for Windows.

---------------------------------------------------------------------

Copyright(C) Seiichi Yoshida (comet@aerith.net). All rights reserved.